When you browse on this site, cookies collect data to enhance your experience and personalize the content and advertising you see.
Visit our Privacy Policy to learn more. By continuing to use the site, you agree to this use of cookies and data.
  • In United Kingdom
  • List of Countries
  • For 7 days
  • Water Temperature
  • Weather Map
  • Weather Widgets
  • user-avatar
    Login

    Hourly Weather Pidlisne

    Today, 15 December, Sunday

    Time Temperature Precipitation Wind Pressure Humidity
    00:00 +4°C° 0 mm 4 mps 736 mmHg 96%
    01:00 +4°C° 0 mm 4 mps 736 mmHg 96%
    02:00 +4°C° 0 mm 4 mps 736 mmHg 95%
    03:00 +4°C° 0.1 mm 4 mps 736 mmHg 96%
    04:00 +4°C° 0.1 mm 4 mps 735 mmHg 96%
    05:00 +4°C° 0.1 mm 4 mps 735 mmHg 97%
    06:00 +5°C° 1.8 mm 4 mps 735 mmHg 97%
    07:00 +5°C° 1.8 mm 4 mps 736 mmHg 97%
    08:00 +5°C° 0 mm 3 mps 736 mmHg 97%
    09:00 +5°C° 1.5 mm 4 mps 737 mmHg 93%
    10:00 +5°C° 1.5 mm 4 mps 737 mmHg 89%
    11:00 +5°C° 1.5 mm 5 mps 737 mmHg 86%
    12:00 +6°C° 0 mm 5 mps 738 mmHg 78%
    13:00 +6°C° 0 mm 5 mps 739 mmHg 71%
    14:00 +6°C° 0 mm 5 mps 739 mmHg 64%
    15:00 +5°C° 0 mm 5 mps 740 mmHg 67%
    16:00 +4°C° 0 mm 4 mps 741 mmHg 69%
    17:00 +4°C° 0 mm 3 mps 741 mmHg 71%
    18:00 +3°C° 0 mm 3 mps 742 mmHg 74%
    19:00 +3°C° 0 mm 3 mps 742 mmHg 76%
    20:00 +3°C° 0 mm 3 mps 743 mmHg 78%
    21:00 +2°C° 0 mm 3 mps 743 mmHg 80%
    22:00 +2°C° 0 mm 3 mps 744 mmHg 81%
    23:00 +2°C° 0 mm 3 mps 744 mmHg 83%

    Tomorrow, 16 December, Monday

    Time Temperature Precipitation Wind Pressure Humidity
    00:00 +2°C° 0 mm 3 mps 744 mmHg 80%
    01:00 +1°C° 0 mm 4 mps 744 mmHg 77%
    02:00 +1°C° 0 mm 4 mps 744 mmHg 75%
    03:00 +3°C° 0 mm 4 mps 744 mmHg 73%
    04:00 +3°C° 0 mm 4 mps 744 mmHg 71%
    05:00 +2°C° 0 mm 5 mps 744 mmHg 69%
    06:00 +3°C° 0 mm 4 mps 745 mmHg 69%
    07:00 +3°C° 0 mm 4 mps 745 mmHg 68%
    08:00 +3°C° 0 mm 4 mps 745 mmHg 67%
    09:00 +4°C° 0 mm 4 mps 746 mmHg 66%
    10:00 +4°C° 0 mm 4 mps 746 mmHg 65%
    11:00 +5°C° 0 mm 4 mps 746 mmHg 64%
    12:00 +5°C° 0 mm 4 mps 746 mmHg 63%
    13:00 +6°C° 0 mm 4 mps 745 mmHg 63%
    14:00 +7°C° 0 mm 3 mps 745 mmHg 62%
    15:00 +5°C° 0 mm 3 mps 745 mmHg 65%
    16:00 +5°C° 0 mm 3 mps 746 mmHg 69%
    17:00 +4°C° 0 mm 3 mps 746 mmHg 72%
    18:00 +4°C° 0 mm 3 mps 746 mmHg 73%
    19:00 +5°C° 0 mm 2 mps 746 mmHg 73%
    20:00 +5°C° 0 mm 2 mps 747 mmHg 74%
    21:00 +5°C° 0 mm 2 mps 747 mmHg 75%
    22:00 +6°C° 0 mm 1 mps 747 mmHg 76%
    23:00 +6°C° 0 mm 1 mps 747 mmHg 77%

    Day after tomorrow, 17 December, Tuesday

    Time Temperature Precipitation Wind Pressure Humidity
    00:00 +6°C° 0 mm 1 mps 747 mmHg 77%
    01:00 +6°C° 0 mm 1 mps 747 mmHg 78%
    02:00 +6°C° 0 mm 1 mps 748 mmHg 78%
    03:00 +6°C° 0 mm 1 mps 747 mmHg 79%
    04:00 +5°C° 0 mm 1 mps 747 mmHg 79%
    05:00 +4°C° 0 mm 2 mps 747 mmHg 80%
    06:00 +4°C° 0 mm 2 mps 747 mmHg 81%
    07:00 +4°C° 0 mm 2 mps 747 mmHg 81%
    08:00 +4°C° 0 mm 2 mps 747 mmHg 82%
    09:00 +4°C° 0 mm 3 mps 748 mmHg 77%
    10:00 +5°C° 0 mm 3 mps 748 mmHg 72%
    11:00 +7°C° 0 mm 3 mps 748 mmHg 67%
    12:00 +7°C° 0 mm 4 mps 747 mmHg 65%
    13:00 +7°C° 0 mm 4 mps 747 mmHg 63%
    14:00 +7°C° 0 mm 4 mps 746 mmHg 61%
    15:00 +7°C° 0 mm 3 mps 746 mmHg 65%
    16:00 +5°C° 0 mm 3 mps 746 mmHg 69%
    17:00 +4°C° 0 mm 3 mps 746 mmHg 74%
    18:00 +4°C° 0 mm 3 mps 746 mmHg 79%
    19:00 +4°C° 0 mm 3 mps 746 mmHg 85%
    20:00 +4°C° 0 mm 3 mps 746 mmHg 90%
    21:00 +4°C° 0 mm 3 mps 746 mmHg 91%
    22:00 +4°C° 0 mm 3 mps 746 mmHg 92%
    23:00 +4°C° 0 mm 3 mps 746 mmHg 93%

    18 December, Wednesday

    Time Temperature Precipitation Wind Pressure Humidity
    00:00 +3°C° 0 mm 3 mps 746 mmHg 91%
    01:00 +3°C° 0 mm 3 mps 746 mmHg 89%
    02:00 +3°C° 0 mm 3 mps 746 mmHg 87%
    03:00 +3°C° 0 mm 3 mps 746 mmHg 85%
    04:00 +3°C° 0 mm 3 mps 745 mmHg 84%
    05:00 +2°C° 0 mm 3 mps 745 mmHg 83%
    06:00 +2°C° 0 mm 3 mps 745 mmHg 81%
    07:00 +2°C° 0 mm 3 mps 745 mmHg 80%
    08:00 +2°C° 0 mm 3 mps 745 mmHg 79%
    09:00 +4°C° 0 mm 3 mps 745 mmHg 73%
    10:00 +5°C° 0 mm 3 mps 746 mmHg 67%
    11:00 +7°C° 0 mm 3 mps 746 mmHg 62%
    12:00 +8°C° 0 mm 3 mps 746 mmHg 60%
    13:00 +9°C° 0 mm 3 mps 745 mmHg 58%
    14:00 +10°C° 0 mm 3 mps 745 mmHg 57%
    15:00 +8°C° 0 mm 2 mps 745 mmHg 61%
    16:00 +7°C° 0 mm 2 mps 745 mmHg 65%
    17:00 +6°C° 0 mm 2 mps 745 mmHg 69%
    18:00 +6°C° 0 mm 2 mps 745 mmHg 70%
    19:00 +5°C° 0 mm 3 mps 745 mmHg 70%
    20:00 +4°C° 0 mm 3 mps 745 mmHg 71%
    21:00 +4°C° 0 mm 3 mps 745 mmHg 70%
    22:00 +4°C° 0 mm 3 mps 745 mmHg 70%
    23:00 +5°C° 0 mm 2 mps 745 mmHg 70%

    19 December, Thursday

    Time Temperature Precipitation Wind Pressure Humidity
    00:00 +5°C° 0 mm 2 mps 745 mmHg 70%
    01:00 +5°C° 0 mm 2 mps 745 mmHg 70%
    02:00 +5°C° 0 mm 2 mps 745 mmHg 70%
    03:00 +4°C° 0 mm 2 mps 744 mmHg 70%
    04:00 +4°C° 0 mm 2 mps 744 mmHg 71%
    05:00 +4°C° 0 mm 2 mps 744 mmHg 71%
    06:00 +4°C° 0 mm 2 mps 744 mmHg 72%
    07:00 +4°C° 0 mm 2 mps 744 mmHg 74%
    08:00 +3°C° 0 mm 2 mps 744 mmHg 75%
    09:00 +5°C° 0 mm 2 mps 744 mmHg 71%
    10:00 +6°C° 0 mm 2 mps 744 mmHg 68%
    11:00 +7°C° 0 mm 2 mps 744 mmHg 64%
    12:00 +8°C° 0 mm 2 mps 743 mmHg 65%
    13:00 +8°C° 0 mm 2 mps 743 mmHg 66%
    14:00 +9°C° 0 mm 2 mps 742 mmHg 68%
    15:00 +8°C° 0 mm 2 mps 742 mmHg 74%
    16:00 +7°C° 0 mm 2 mps 742 mmHg 80%
    17:00 +6°C° 0 mm 2 mps 742 mmHg 86%
    18:00 +6°C° 0 mm 2 mps 741 mmHg 88%
    19:00 +6°C° 0 mm 2 mps 741 mmHg 90%
    20:00 +6°C° 0 mm 2 mps 741 mmHg 92%
    21:00 +5°C° 0 mm 2 mps 741 mmHg 91%
    22:00 +6°C° 0 mm 1 mps 741 mmHg 91%
    23:00 +6°C° 0 mm 1 mps 741 mmHg 90%

    20 December, Friday

    Time Temperature Precipitation Wind Pressure Humidity
    00:00 +6°C° 0 mm 1 mps 740 mmHg 89%
    01:00 +6°C° 0 mm 1 mps 740 mmHg 88%
    02:00 +5°C° 0 mm 0 mps 740 mmHg 87%
    03:00 +4°C° 0 mm 0 mps 739 mmHg 86%
    04:00 +4°C° 0 mm 0 mps 739 mmHg 85%
    05:00 +4°C° 0 mm 0 mps 739 mmHg 84%
    06:00 +4°C° 0 mm 0 mps 739 mmHg 85%
    07:00 +5°C° 0 mm 1 mps 739 mmHg 85%
    08:00 +5°C° 0 mm 1 mps 739 mmHg 86%
    09:00 +6°C° 0 mm 1 mps 739 mmHg 86%
    10:00 +6°C° 0 mm 1 mps 738 mmHg 86%
    11:00 +7°C° 0 mm 1 mps 738 mmHg 86%
    12:00 +7°C° 0 mm 1 mps 738 mmHg 86%
    13:00 +7°C° 0 mm 1 mps 738 mmHg 85%
    14:00 +7°C° 0 mm 2 mps 737 mmHg 85%
    15:00 +7°C° 0 mm 1 mps 737 mmHg 88%
    16:00 +6°C° 0 mm 1 mps 737 mmHg 90%
    17:00 +6°C° 0 mm 1 mps 737 mmHg 92%
    18:00 +6°C° 0 mm 1 mps 737 mmHg 93%
    19:00 +4°C° 0 mm 2 mps 737 mmHg 94%
    20:00 +4°C° 0 mm 2 mps 737 mmHg 95%
    21:00 +4°C° 0 mm 2 mps 737 mmHg 94%
    22:00 +5°C° 0 mm 1 mps 738 mmHg 94%
    23:00 +5°C° 0 mm 1 mps 738 mmHg 94%
    Show more